Погода в Сухане

Погода в Сухане : погода сейчас, прогноз погоды и архив. Всё, что Вы хотите узнать о погоде в Сухане!

Поиск расширенной информации на нашем сайте:

Другие новости

Новости СМИ2

Главная страница сайта

Новости сайта

02.10.2013

Напоминаем, что на нашем новом сайте вы можете получить высокодетализированные прогнозы погоды по пунктам России, СНГ и мира (включающие важные для авиации метеовеличины, такие как направление и скорость ветра, видимость, явления погоды, количество и форма облачности, нижняя и верхняя граница облачности), а также ознакомиться с разнообразными материалами по авиационной метеорологии и подборкой полезных ссылок на эту тему.

Сайт Метеоцентр.Азия посвящён разработке технологий оптимизации авиаметеорологического обслуживания, включая проектирование и перспективное создание нескольких автоматизированных авиаметеорологических систем:
- система выпуска высокодетальных прогностических карт явлений погоды для нижнего воздушного пространства по России и ближнему зарубежью;
- система верификации прогнозов TAF (выпускаемых синоптиками официальных АМСГ РФ и ближнего зарубежья) и AUTOTAF (выпускаемых сайтом Метеоцентр.Азия) - выявление ошибок, онлайн-сопоставление с фактической погодой METAR, автоматическое внесение коррективов в прогнозы при резком отклонении фактической погоды от прогноза, подсчёт оправдываемости прогнозов по элементам и в целом;
- система обработки, анализа и отображения авиаметеорологической информации для применения провайдерами метеорологической информации.

Рекомендуем: Читайте продажа моторных яхт услуги.

Погода в Сухане - сегодня

Время (UTC), дата Ветер
(°,м/с) 
Видим.   Явления Облачность Т
(°С)
Тd
(°С)
f(%) Тe
(°С)
Pmin
(гПа)
dP
(гПа)
Po
(мм)
O2
(г/м3)
Тmin Tmax R s Состояние
почвы
21 25.06.17 тихо ()   20000 м    3/0 верхняя 
[Ci fib]
+11.8 +6.5 70 +12  1007.7  -0.1  749  288           
00 26.06.17 тихо ()   20000 м    3/0 верхняя 
[Ci fib]
+18.4 +7.8 50 +18  1007.1  -0.5  749  281  +8.3        мокрая 
03 26.06.17 190 (Ю) 20000 м    4/0 верхняя 
[Ci fib]
+25.9 +3.6 24 +26  1004.6  -2.3  747  274           
06 26.06.17 190 (Ю) 20000 м    8/0 средняя, верхняя 
[Ac trans|Ci fib]
+27.2 +1.9 19 +27  1003.2  -1.3  746  273           
09 26.06.17 190 (Ю) 20000 м    9/4 1000 м средняя 
[Sc|As trans]
+26.3 +4.3 24 +26  1001.7  -1.6  745  273           
12 26.06.17 190 (Ю) 20000 м    9/8 600 м средняя 
[Cu Sc|Ac As]
+23.5 +4.3 29 +24  1001.7  745  276    +27.5       
15 26.06.17 190 (Ю) 20000 м    9/6 600 м средняя 
[Sc|As trans]
+19.3 +6.8 44 +21  1001.3  -0.6  744  279           
18 26.06.17 тихо ()   20000 м    10/10 600 м 
[Sc]
+15 +7.8 62 +15  1001.7  0.3  744  283           
21 26.06.17 210 (ЮЗ) 20000 м    10/10 600 м 
[Sc]
+14 +11 82 +18  1002.8  1.1  745  284           
00 27.06.17 340 (С) 20000 м    8/0 средняя, верхняя 
[Ac trans|Ci sp]
+20.4 +11 55 +23  1003.2  0.5  746  278  +13.3        влажная 
03 27.06.17 360 (С) 20000 м    4/0 средняя, верхняя 
[Ac trans|Ci fib]
+20 +8.5 47 +20  1004.9  0.2  747  279           
06 27.06.17 030 (СВ) 20000 м    3/0 средняя 
[Ac trans]
+21.2 +5 35 +21  1006  1.1  748  279           
09 27.06.17 360 (С) 20000 м    3/0 средняя, верхняя 
[Ac trans|Ci fib]
+22.8 +2.7 27 +23  1006.9  1.1  749  278           
12 27.06.17 360 (С) 20000 м    3/0 верхняя 
[Ci sp]
+22.5 +2.5 27 +23  1008.1  1.2  749  279    +23       
15 27.06.17 010 (С) 20000 м    1/0 верхняя 
[Ci fib]
+18.4 +4.6 40 +19  1009.7  1.3  750  283           
18 27.06.17 360 (С) 20000 м    ясно 
+12.7 +4.1 56 +13  1012.9  3.1  753  289           
21 27.06.17 360 (С) 20000 м    ясно 
+12.2 +3.4 55 +13  1013.9  754  290           
00 28.06.17 360 (С) 20000 м    ясно 
+14.2 +3 47 +15  1014.2  0.3  754  288  +10.9        влажная 
03 28.06.17 030 (СВ) 20000 м    ясно 
+18 +5.1 43 +19  1014.1  754  284           
06 28.06.17 170 (Ю) 20000 м    3/3 600 м 
[Cu hum]
+20.7 +5.1 36 +21  1013.7  -0.4  753  281           
09 28.06.17 090 (В) 20000 м    6/6 600 м 
[Cu hum]
+21.9 +6.1 36 +22  1012.7  -0.8  753  280           
12 28.06.17 090 (В) 20000 м    8/4 600 м верхняя 
[Cu hum|Ci fib]
+20.2 +6.2 40 +20  1012.8  -0.1  753  281    +22.2       
15 28.06.17 тихо ()   20000 м    8/4 600 м средняя 
[Sc|Ac As]
+15.5 +4.3 47 +16  1012.4  -0.4  752  286           
18 28.06.17 тихо ()   20000 м    10/5 600 м средняя 
[Sc|As op]
+12.3 +8.9 80 +12  1011.8  -0.7  752  288           
21 28.06.17 360 (С) 20000 м    9/8 600 м средняя 
[Sc|Ac trans]
+13.5 +9.2 75 +15  1010.6  -1.2  751  287           
Время (UTC), дата Ветер
(°,м/с) 
Видим.   Явления Облачность Т
(°С)
Тd
(°С)
f(%) Тe
(°С)
Pmin
(гПа)
dP
(гПа)
Po
(мм)
O2
(г/м3)
Тmin Tmax R s Состояние
почвы

Для получения пояснительной информации подведите курсор к названию столбца.

ПОГОДА в Сухане - архив

Всё, что Вы хотите узнать о погоде в Сухане - удобно и подробно!

Выберите нужную дату (начиная с 1 января 2015* года) и нажмите кнопку "Найти".
Будут отображены архивные сводки погоды по пункту Сухана, начиная с указанной даты.


Отображать данные в формате CSV (для использования в таблицах Excel)


Внимание! Наш архив погоды предназначен исключительно для личного некоммерческого использования в познавательных целях. Если Вам необходимы официальные справки о состоянии погоды (для производственных, юридических, коммерческих и т.п. целей), обращайтесь в органы Росгидромета.

*Примечание: данная дата относится к архиву по метеостанциям СССР (Россия, СНГ, Балтия).
Архив по метеостанциям Зарубежной Европы и Азии (кроме Китая) хранится 10 дней, по другим регионам земного шара (Китай, Африка, Америка, Австралия, Океания) - 1 день.

Сухана - район местоположения метеостанции


Название, широта, долгота, высота метеостанции:
Сухана 68.62°ш. 118.33°д. 77 м над ур. моря [Российская Федерация]

Дополнительная информация

В oтличие oт бoльшинства пoгoдных сайтoв мы публикуем пoдрoбную метеoинфoрмацию в детальнoм прoфессиoнальнoм фoрмате.

Характеристики температуры и влажнoсти вoздуха измеряются на высoте 2 м в тени вдали oт зданий и деревьев.
Скoрoсть ветра измеряется на высoте 10 м (на урoвне рoста челoвека скoрoсть ветра ниже в 1.5-2 раза). Если метеoстанция нахoдится в гoрoде или в лесу, тo скoрoсть ветра занижена на 2-4 м/с пo сравнению с oткрытым местoм. Скoрoсть ветра над акватoриями крупных рек и oзёр, а также на вершинах хoлмoв на 2-5 м/с выше, чем в oбычных услoвиях.
Атмoсфернoе давление в разных тoчках местнoсти мoжет значительнo oтличаться oт давления на метеoстанции, в зависимoсти oт услoвий рельефа (при пoдъёме на 10 м давление пoнижается примернo на 1 мм рт.ст.).